{"data":{"norad_id":64287,"epoch":"2026-09-21T21:57:53.418240Z","epoch_age_seconds":66237,"freshness":"FRESH","line1":"1 64287U 25121E   26264.91520160  .00000037  00000+0  51780-4 0  9996","line2":"2 64287  86.5039 340.9039 0001646 120.0396 240.0902 13.24412841 62966","mean_motion":13.24412841,"eccentricity":0.0001646,"inclination_deg":86.5039,"raan_deg":340.9039,"arg_perigee_deg":120.0396,"mean_anomaly_deg":240.0902,"bstar":5.178e-5,"rev_number":6296,"period_min":108.72742663177,"perigee_km":1166.6693146818,"apogee_km":1169.1534738132,"semimajor_km":7546.0483942475,"source":"CELESTRAK","updated_at":"2026-09-22T09:00:29.676270Z"}}